Location: Wheeling
(40.0640°N, 80.7210°W)
Time: 05:20:55
(UTC-04:00)

Tiangong - Visible Passes

Search period start: 30 July 2021 00:00
Search period end: 09 August 2021 00:00
Orbit: 373 x 386 km, 41.5° (Epoch: 29 July)

Date Brightness Start Highest point End Pass type
(mag) Time Alt. Az. Time Alt. Az. Time Alt. Az.
06 Aug 2.8 05:52:47 10° SSW 05:55:24 24° SSE 05:58:02 10° E visible
07 Aug 3.3 04:53:38 14° SSE 04:54:14 14° SE 04:56:00 10° ESE visible
08 Aug 1.9 05:27:14 17° SW 05:29:13 38° SSE 05:32:11 10° E visible
